User: anonymous
Location: Unspecified
(0.0000°N, 0.0000°E)
Time: 00:15:36
(UTC+02:00)
Language:

IUS-9 SRM-1 - Orbit

View from above orbital plane
View from above orbital plane
View from above satellite
View from above satellite

Ground track
Ground track

The orbit data is extracted from the following two-line orbital elements,

1 19884U 89021C   14264.91489652  .00015839  00000-0  17022-2 0  1117
2 19884 026.4676 052.6212 6064950 096.7195 018.8849 03.97430813293389
Epoch (UTC): 21 September 2014 21:57:27
Eccentricity: 0.6064950
inclination: 26.4676°
perigee height: 247 km
apogee height: 20668 km
right ascension of ascending node: 52.6212°
argument of perigee: 96.7195°
revolutions per day: 3.97430813
mean anomaly at epoch: 18.8849°
orbit number at epoch: 29338

The dashed part of the orbit path shows where the satellite is in the earth's shadow,  

DLR